Wind_Speed
12 16 21 12 9 12 20 25 30 28 16 28 26 29 31 26 26 26 31 32 32 30 32 36 40 39 39 39 38 39 42 41 32 26 34 40 41 31 30 34 36 31 37 42
12 20 10 7 13 18 22 28 31 31 25 20 22 28 35 31 29 28 30 31 32 31 29 30 34 31 32 33 37 38 42 42 37 32 33 37 40 36 33 31 28 38 33 45
13 9 6 12 16 21 24 23 23 28 26 26 28 35 41 37 31 33 29 20 22 29 30 27 26 27 30 31 34 37 36 37 38 34 32 40 43 40 39 35 31 35 37 35
12 7 10 11 18 23 27 26 24 25 24 27 24 20 39 43 36 29 28 24 24 22 22 22 25 29 30 31 30 31 31 36 36 36 36 39 42 42 42 41 37 34 35 36
22 17 16 20 21 25 29 27 27 25 27 22 29 10 39 34 38 41 34 31 32 30 30 30 31 32 34 35 36 30 26 29 35 37 36 43 41 38 41 45 40 38 34 38
28 27 27 21 20 24 27 30 28 25 22 7 30 17 31 44 39 40 39 36 36 40 35 37 38 39 37 40 39 33 30 30 30 30 33 36 42 46 48 46 46 46 43 39
26 29 26 23 25 22 23 24 10 7 6 12 21 18 40 32 20 26 29 34 41 41 45 43 43 44 39 41 39 36 37 40 38 38 36 35 34 43 44 45 45 47 45 40
12 13 18 21 17 19 24 15 7 6 4 9 16 13 26 18 12 18 22 30 35 37 38 42 47 44 39 40 41 41 43 43 39 39 42 43 44 42 47 51 46 48 48 45
4 5 9 16 17 17 19 18 20 7 12 2 10 25 30 24 21 20 15 17 24 30 28 25 28 30 35 40 43 43 40 37 36 39 44 46 45 42 42 48 55 53 53 48
10 12 9 9 13 16 20 19 11 8 4 4 5 9 17 11 9 13 13 10 3 2 14 16 18 23 28 28 25 29 27 25 20 22 23 24 27 31 36 41 46 52 53 52
14 9 12 16 17 17 15 13 12 10 7 3 1 5 4 8 15 15 11 17 8 5 9 12 23 26 23 21 21 20 21 16 17 18 19 15 14 19 24 30 35 40 42 41
9 9 11 21 19 12 9 10 9 6 4 7 4 12 19 16 9 7 10 11 25 20 10 11 20 24 27 25 24 23 26 22 18 22 23 22 19 17 18 17 23 26 29 32
8 5 7 11 3 2 7 14 14 11 16 12 3 7 11 16 18 19 19 20 14 16 28 24 16 16 22 27 30 28 28 28 26 23 25 28 26 19 15 16 16 18 19 22
8 9 10 11 15 17 24 24 21 20 12 16 21 28 21 22 19 19 15 12 19 17 19 22 39 28 29 27 33 34 33 36 34 31 29 30 31 29 24 21 19 20 23 24
11 13 14 16 18 24 24 18 17 22 26 23 30 25 24 24 22 21 19 21 21 23 25 24 28 33 39 44 40 35 31 32 37 37 43 38 34 36 36 32 26 25 27 29
15 13 12 23 19 5 19 20 18 9 9 16 19 22 24 20 22 21 20 20 23 27 29 31 33 37 41 43 43 47 47 45 44 42 46 47 45 42 44 44 41 39 38 36
18 17 9 10 11 19 9 6 3 7 10 14 14 18 23 23 23 27 28 27 31 33 31 33 36 39 44 46 47 51 53 53 55 58 55 56 58 51 50 50 49 47 46 45
10 7 7 11 13 2 4 6 8 13 17 12 25 27 25 29 33 36 35 41 46 44 43 43 44 47 47 48 48 50 54 56 55 54 57 53 56 54 54 55 55 54 53 53
7 11 7 4 5 16 18 17 8 18 28 28 29 25 26 33 48 48 45 43 45 46 48 49 50 51 54 56 58 61 61 60 61 61 59 61 65 64 62 62 60 62 61 61
9 9 11 5 2 4 5 9 13 19 29 11 17 29 43 43 52 56 47 49 53 53 54 56 57 60 63 64 62 64 68 70 72 69 68 67 67 65 64 63 65 64 62 63
7 7 15 12 7 12 15 14 16 11 17 29 37 40 44 46 49 54 53 55 55 55 55 65 65 67 66 63 63 65 65 71 72 74 75 75 73 71 68 67 65 62 61 64
3 4 5 6 6 8 7 24 22 30 33 36 38 42 47 48 51 52 57 64 66 67 66 65 65 67 66 63 65 69 69 65 63 65 70 75 74 73 72 70 69 66 62 62
4 2 5 6 9 21 22 26 29 29 31 36 41 46 51 55 53 56 64 66 64 59 53 46 43 44 48 55 58 61 62 59 55 53 57 63 64 64 65 64 61 56 55 50
8 11 13 16 9 23 20 13 22 27 32 37 41 47 52 56 49 60 66 63 54 32 33 37 40 44 46 38 42 46 47 50 53 46 46 49 53 53 51 51 52 51 47 43
14 16 15 19 19 25 16 20 26 29 32 35 39 45 51 49 53 59 57 49 31 26 29 34 40 44 38 32 36 36 35 38 47 44 42 43 44 42 43 44 44 46 41 34
10 8 13 18 20 21 19 23 29 31 35 39 47 52 49 49 52 48 45 37 33 32 28 37 39 32 32 30 21 29 28 32 39 41 39 37 31 32 33 31 30 30 28 26
Wind_Direction
243 252 253 266 270 288 297 296 297 301 293 299 287 287 286 286 279 276 272 263 251 244 241 238 233 238 241 245 245 256 263 261 263 250 246 242 246 244 243 241 227 230 237 243
247 254 262 273 288 293 296 296 299 303 296 268 287 282 284 286 282 271 268 264 245 249 244 243 236 240 246 249 249 249 252 260 260 261 240 242 244 246 241 239 244 236 247 238
244 285 259 262 285 299 301 299 305 304 299 276 275 281 281 280 281 274 271 259 248 251 248 239 239 246 245 243 242 247 249 248 257 252 249 245 245 244 248 246 241 231 232 245
258 320 265 270 282 291 293 297 299 303 291 277 290 276 283 279 281 270 256 250 229 230 228 234 238 240 243 248 250 253 256 249 246 247 244 249 249 246 244 248 246 244 239 240
270 287 288 281 287 290 290 295 300 297 290 283 277 254 281 283 282 275 265 255 242 236 230 231 236 244 246 249 253 255 249 245 247 248 244 243 250 251 246 246 243 247 249 243
264 266 269 277 274 283 289 292 289 287 267 253 270 256 277 277 284 286 274 276 268 250 240 238 241 240 253 243 244 246 244 244 252 255 254 251 247 248 254 253 246 245 247 247
255 258 257 270 285 298 289 292 299 276 237 252 277 264 261 268 274 283 281 270 273 264 250 240 246 245 248 233 237 241 245 247 246 254 258 262 255 247 247 248 245 241 243 244
276 274 272 281 290 294 291 276 237 271 248 275 273 247 270 275 264 274 277 283 283 273 258 247 250 247 241 231 235 240 245 248 249 252 255 259 264 256 264 250 242 236 236 244
294 248 296 297 287 280 273 253 265 257 264 295 258 269 276 263 269 270 272 289 296 281 244 229 227 235 228 230 235 239 243 249 256 260 260 262 262 259 250 241 241 242 245 251
309 295 303 300 301 295 279 280 256 241 225 210 261 271 262 295 277 255 253 264 32 246 199 194 197 210 217 223 235 241 251 265 262 262 268 266 256 252 249 245 241 244 247 249
321 314 307 303 308 303 293 281 290 258 235 229 284 256 265 317 338 328 306 267 199 148 158 183 199 198 213 227 240 251 259 283 287 291 293 287 285 265 254 253 249 247 247 249
300 290 281 304 308 289 252 287 297 274 301 268 289 279 261 243 287 294 293 270 252 214 235 200 205 213 218 223 235 241 252 263 278 291 292 288 283 270 259 253 252 253 252 252
293 257 297 317 314 193 299 309 309 282 289 262 249 273 297 289 304 300 280 283 280 276 255 246 240 225 219 225 227 237 252 256 259 259 269 275 275 265 250 244 236 241 244 245
262 264 262 245 281 293 293 294 295 279 259 269 256 282 299 295 294 302 279 275 258 253 270 254 231 230 235 237 239 236 243 250 251 251 253 259 262 265 262 254 253 260 259 255
252 267 278 282 286 292 292 290 291 281 273 252 278 283 288 283 287 286 277 271 266 262 255 245 244 247 249 255 252 245 251 260 248 248 251 249 253 263 269 270 270 274 273 275
274 273 274 285 308 312 300 281 292 308 275 275 271 274 271 274 276 283 287 276 271 272 268 260 251 245 248 253 253 245 256 259 251 254 251 248 249 248 254 259 264 273 276 278
273 269 277 286 306 310 288 226 297 336 323 276 270 282 284 286 284 285 288 289 287 281 270 258 259 255 252 250 250 248 251 257 252 248 244 244 247 243 248 254 258 265 273 279
232 220 283 290 314 257 236 322 276 316 322 287 300 292 286 288 289 287 290 294 293 289 283 278 266 258 255 256 253 251 252 252 252 250 245 241 238 239 242 247 255 260 265 272
233 250 263 257 290 288 272 267 300 315 305 306 294 289 287 289 294 289 297 300 297 294 289 283 278 271 263 257 254 252 251 250 249 252 250 246 242 244 244 245 250 255 260 266
221 213 243 240 245 255 263 242 273 309 302 313 310 296 302 306 306 307 313 307 301 295 289 284 282 277 273 267 259 253 251 250 248 246 246 249 249 248 250 251 254 257 262 266
236 241 237 252 253 269 273 285 307 293 295 303 307 310 312 307 306 306 307 310 304 296 288 288 285 280 277 272 267 261 256 251 249 248 250 249 247 250 253 258 261 262 263 267
264 244 200 229 240 272 305 311 309 302 299 303 308 313 315 311 311 309 311 309 305 300 296 292 288 284 280 273 268 265 260 257 252 248 246 246 248 249 252 254 257 261 264 262
244 270 285 255 261 292 303 309 304 300 307 316 315 320 315 312 309 312 312 310 309 307 306 305 296 286 278 273 269 264 259 255 248 245 240 241 242 245 248 250 252 252 252 256
275 288 287 293 289 305 299 294 311 307 309 314 320 318 314 317 317 314 316 315 315 321 320 313 309 302 292 281 270 264 256 243 241 235 236 233 233 235 239 240 243 245 246 247
275 286 286 293 307 303 308 307 307 307 313 317 322 326 327 324 323 318 316 318 314 315 316 320 315 310 298 288 262 256 249 232 229 225 227 230 232 233 237 240 238 240 243 241
275 283 298 312 323 326 325 318 318 316 324 332 330 329 335 335 330 323 321 323 318 317 330 337 342 339 333 332 269 244 241 221 217 215 216 222 219 219 221 222 225 224 220 229
Height
3089 3089 3086 3088 3090 3090 3089 3086 3084 3083 3085 3083 3080 3075 3074 3079 3079 3078 3075 3076 3078 3080 3084 3087 3089 3093 3097 3100 3102 3102 3103 3107 3110 3113 3115 3116 3115 3116 3120 3125 3128 3130 3140 3143
3088 3083 3085 3087 3087 3087 3086 3083 3080 3078 3080 3078 3076 3072 3069 3071 3072 3072 3071 3070 3072 3075 3076 3079 3084 3086 3088 3091 3095 3096 3097 3099 3103 3106 3109 3109 3109 3110 3115 3118 3119 3119 3126 3134
3084 3083 3084 3084 3083 3083 3082 3080 3077 3075 3074 3072 3070 3066 3063 3065 3066 3068 3068 3066 3066 3068 3070 3072 3074 3076 3080 3083 3085 3088 3090 3094 3095 3097 3099 3102 3102 3105 3108 3109 3113 3117 3121 3120
3081 3080 3079 3080 3079 3079 3076 3076 3073 3071 3070 3067 3066 3059 3057 3056 3057 3060 3061 3061 3060 3061 3063 3065 3066 3069 3072 3075 3079 3081 3083 3086 3087 3090 3092 3094 3096 3099 3101 3102 3105 3108 3110 3110
3074 3075 3076 3076 3076 3074 3072 3071 3069 3067 3065 3061 3059 3057 3047 3049 3047 3049 3052 3051 3052 3052 3053 3055 3058 3061 3065 3068 3069 3071 3075 3078 3081 3083 3086 3089 3090 3091 3092 3094 3095 3098 3100 3103
3070 3072 3072 3071 3071 3070 3067 3065 3062 3061 3059 3056 3049 3054 3042 3039 3041 3040 3041 3042 3041 3044 3046 3048 3050 3053 3055 3059 3061 3064 3068 3070 3072 3076 3079 3080 3081 3083 3084 3086 3089 3091 3094 3096
3066 3066 3066 3065 3065 3064 3063 3061 3059 3056 3052 3044 3044 3045 3033 3033 3035 3036 3035 3033 3031 3032 3035 3038 3039 3042 3045 3048 3054 3058 3060 3063 3067 3068 3070 3071 3072 3073 3075 3078 3080 3085 3087 3089
3060 3062 3063 3062 3060 3060 3059 3058 3058 3049 3046 3039 3038 3032 3028 3030 3029 3028 3028 3024 3021 3020 3021 3026 3030 3034 3036 3041 3046 3050 3053 3055 3058 3060 3061 3062 3062 3062 3065 3068 3072 3075 3078 3082
3059 3058 3058 3057 3055 3056 3051 3049 3048 3045 3042 3041 3033 3028 3027 3025 3024 3023 3021 3019 3014 3009 3010 3014 3019 3025 3029 3034 3038 3043 3045 3048 3049 3050 3050 3049 3049 3050 3051 3055 3060 3065 3069 3073
3055 3053 3052 3052 3050 3050 3048 3047 3044 3041 3036 3034 3029 3025 3022 3022 3021 3021 3018 3017 3013 3009 3008 3011 3014 3018 3024 3030 3034 3036 3038 3040 3041 3041 3040 3040 3041 3042 3043 3046 3050 3055 3059 3063
3051 3051 3051 3049 3047 3044 3045 3043 3041 3037 3034 3031 3029 3021 3021 3021 3020 3018 3017 3016 3012 3010 3009 3011 3014 3015 3019 3023 3026 3029 3032 3034 3034 3034 3034 3035 3036 3036 3037 3040 3043 3046 3049 3053
3049 3048 3046 3046 3043 3040 3040 3041 3039 3037 3034 3030 3028 3020 3017 3013 3016 3015 3014 3013 3013 3009 3005 3008 3010 3013 3015 3018 3021 3023 3025 3026 3028 3029 3029 3029 3031 3032 3033 3036 3039 3042 3045 3048
3047 3046 3046 3042 3042 3040 3039 3038 3037 3035 3032 3027 3029 3021 3017 3015 3015 3013 3011 3010 3008 3009 3009 3009 3009 3009 3010 3012 3013 3015 3018 3020 3022 3023 3025 3025 3027 3028 3030 3032 3035 3037 3039 3042
3043 3043 3043 3042 3040 3039 3035 3033 3033 3032 3029 3026 3021 3016 3014 3012 3010 3010 3008 3005 3005 3004 3005 3004 3004 3003 3005 3006 3007 3008 3009 3011 3014 3016 3018 3019 3020 3022 3024 3026 3028 3031 3032 3034
3040 3038 3038 3037 3035 3033 3030 3027 3026 3025 3022 3021 3015 3014 3011 3008 3005 3004 3004 3003 3001 2998 2997 2997 2997 2999 3000 3000 3000 3000 3000 3003 3006 3007 3007 3010 3011 3012 3014 3016 3019 3021 3023 3026
3037 3035 3034 3031 3030 3027 3025 3023 3022 3019 3017 3014 3011 3008 3006 3004 3001 3000 2999 2997 2995 2994 2991 2989 2989 2988 2988 2988 2989 2989 2989 2990 2992 2994 2996 2999 3000 3002 3004 3006 3009 3011 3013 3015
3033 3032 3032 3027 3026 3024 3020 3018 3017 3016 3014 3012 3009 3007 3003 2999 2997 2994 2992 2990 2987 2985 2983 2980 2979 2977 2975 2974 2975 2974 2975 2975 2977 2978 2980 2983 2987 2989 2992 2995 2997 2998 3001 3004
3028 3030 3030 3026 3024 3022 3017 3016 3014 3012 3010 3008 3004 3001 2998 2993 2988 2985 2984 2979 2975 2970 2967 2965 2964 2962 2961 2960 2959 2959 2959 2959 2960 2963 2967 2968 2971 2975 2979 2983 2985 2987 2990 2992
3026 3027 3028 3026 3024 3020 3014 3012 3013 3010 3003 3002 2998 2995 2991 2987 2977 2975 2975 2969 2961 2955 2950 2946 2943 2940 2939 2939 2940 2940 2940 2941 2942 2944 2949 2953 2956 2960 2963 2966 2971 2974 2977 2980
3023 3024 3025 3023 3024 3020 3010 3010 3010 3007 2999 2996 2994 2991 2984 2976 2964 2956 2956 2951 2945 2940 2934 2926 2921 2916 2912 2912 2916 2916 2915 2917 2919 2924 2929 2934 2938 2943 2947 2952 2956 2961 2964 2966
3020 3020 3020 3020 3020 3013 3009 3009 3007 3005 3001 2994 2988 2982 2974 2965 2958 2944 2940 2932 2926 2918 2911 2904 2897 2889 2885 2885 2885 2883 2887 2888 2897 2903 2908 2913 2919 2924 2930 2934 2939 2945 2948 2949
3018 3017 3016 3017 3016 3011 3007 3006 3004 2998 2991 2985 2979 2973 2963 2953 2943 2933 2923 2913 2902 2891 2881 2873 2862 2854 2851 2855 2855 2851 2854 2863 2873 2880 2884 2890 2897 2905 2912 2918 2923 2926 2931 2933
3016 3016 3016 3015 3010 3007 3004 3000 2996 2988 2982 2977 2970 2962 2953 2940 2931 2920 2908 2895 2881 2868 2857 2848 2839 2833 2828 2824 2822 2821 2826 2835 2844 2853 2861 2870 2878 2885 2893 2899 2905 2910 2913 2916
3013 3012 3011 3009 3006 3003 2999 2995 2990 2985 2979 2973 2966 2956 2943 2930 2919 2906 2890 2876 2865 2855 2845 2836 2826 2816 2807 2801 2797 2796 2802 2812 2821 2832 2844 2853 2862 2870 2877 2884 2889 2895 2899 2903
3010 3009 3006 3004 3002 2997 2995 2992 2985 2980 2974 2967 2959 2946 2933 2920 2907 2891 2875 2865 2854 2845 2836 2826 2814 2799 2787 2781 2777 2779 2783 2791 2803 2816 2830 2840 2850 2859 2866 2871 2877 2882 2888 2893
3005 3004 3003 3000 2997 2993 2990 2986 2979 2972 2966 2958 2947 2936 2925 2913 2896 2880 2867 2856 2846 2836 2830 2819 2803 2789 2776 2765 2760 2765 2770 2778 2791 2805 2819 2831 2841 2849 2855 2861 2867 2873 2880 2885